Location: Frizzleburg
(41.0764°N, 80.4548°W)
Time: 05:53:01
(UTC+00:00)

SJ-12 - Pass Details

Date: 17 November 2019
Orbit: 570 x 585 km, 97.6° (Epoch: 13 December)

Event Time Altitude Azimuth Distance (km) Brightness Sun altitude
Rises 10:48:00 0° 9° (N) 2,820 7.4 -15.8°
Reaches altitude 10° 10:50:10 10° 7° (N) 1,915 6.5 -15.4°
Maximum altitude 10:54:18 70° 285° (WNW) 627 3.8 -14.6°
Drops below altitude 10° 10:58:24 10° 202° (SSW) 1,898 6.5 -13.9°
Sets 11:00:33 0° 200° (SSW) 2,792 7.4 -13.5°
